EA7NW Cordoba ES current weather conditions

sailwx.info

Wind from 122 at 9 knots gusting 18

Air temperature 30.0° C
Dewpoint 19.4° C

Last reported at 2014-Jul-28 19:30 UTC.
Time now 2014-Jul-28 20:33 UTC

Location: N 37°53' W 004°48'.
View on Google Maps.

See reports from other nearby stations

  
Tides and Currents Weather Stations Pressure Air Temp Water Temp Dewpoint Dewpoint Depression Visibility Wind Speed Wind Dir Waves Ship Positions
date/time (UTC)wind fromknots sea level pressurealtimeterstation pressurevisibilityair tempwater tempwave heightnotes
2014-Jul-28 19:30 122 9 gusting 18 30.0
2014-Jul-28 19:00 160 10 gusting 19 31.7
2014-Jul-28 18:45 183 9 gusting 21 32.2
2014-Jul-28 18:30 164 12 gusting 19 32.8
2014-Jul-28 18:15 192 10 gusting 19 33.3
2014-Jul-28 18:00 203 8 gusting 18 33.3
2014-Jul-28 17:45 133 7 gusting 18 33.9
2014-Jul-28 17:15 170 9 gusting 18 33.9
2014-Jul-28 17:00 160 7 gusting 18 33.9
2014-Jul-28 16:45 115 6 gusting 17 34.4
2014-Jul-28 16:30 205 6 gusting 15 34.4
2014-Jul-28 16:00 203 9 gusting 17 33.9
2014-Jul-28 15:45 160 8 gusting 15 33.3
2014-Jul-28 15:15 137 6 gusting 17 33.3
2014-Jul-28 15:00 250 7 gusting 19 32.8
2014-Jul-28 14:45 129 6 gusting 17 32.8
2014-Jul-28 14:15 205 6 gusting 15 32.2
2014-Jul-28 13:45 202 6 gusting 13 31.7
2014-Jul-28 13:00 168 6 gusting 15 30.6
2014-Jul-28 12:30 160 6 gusting 13 29.4
2014-Jul-28 12:15 205 6 gusting 13 29.4
2014-Jul-28 11:45 115 5 gusting 11 28.3
2014-Jul-28 11:30 207 5 gusting 11 27.8
2014-Jul-28 11:15 182 4 gusting 8 27.2
2014-Jul-28 10:45 115 1 gusting 8 26.7
2014-Jul-28 10:30 070 1 gusting 6 27.2
2014-Jul-28 10:00 281 1 gusting 6 25.6
2014-Jul-28 09:15 250 2 gusting 6 23.9
2014-Jul-28 09:00 295 1 gusting 5 23.9
2014-Jul-28 08:45 295 1 gusting 5 23.3
2014-Jul-28 08:30 295 4 gusting 6 22.8
2014-Jul-28 07:45 250 3 gusting 6 21.1
2014-Jul-28 05:45 205 4 gusting 8 19.4
2014-Jul-28 05:15 160 1 gusting 6 19.4
2014-Jul-28 04:30 195 5 gusting 11 19.4
2014-Jul-28 04:00 160 4 gusting 8 19.4
2014-Jul-28 03:45 160 5 gusting 11 20.0
2014-Jul-28 03:30 205 4 gusting 8 20.0
2014-Jul-28 03:00 205 3 gusting 10 20.6
2014-Jul-28 02:45 205 1 gusting 6 20.6
2014-Jul-28 02:30 205 3 gusting 10 20.6
2014-Jul-28 02:00 205 4 gusting 8 21.1
2014-Jul-28 01:45 205 4 gusting 8 21.1
2014-Jul-28 00:45 115 2 gusting 11 22.2
2014-Jul-28 00:30 160 5 gusting 11 22.8
2014-Jul-28 00:15 160 4 gusting 10 23.3
2014-Jul-27 23:15 160 4 gusting 10 24.4
2014-Jul-27 23:00 160 6 gusting 13 25.0
2014-Jul-27 22:45 115 3 gusting 13 25.0
2014-Jul-27 22:00 181 6 gusting 14 26.1
2014-Jul-27 21:45 160 6 gusting 13 27.2
2014-Jul-27 21:30 160 5 gusting 11 27.8
2014-Jul-27 20:45 095 6 gusting 17 28.9
2014-Jul-27 20:15 205 7 gusting 15 30.0
2014-Jul-27 20:00 135 8 gusting 19 30.0
2014-Jul-27 19:15 174 7 gusting 14 32.2
2014-Jul-27 19:00 205 8 gusting 18 32.8
2014-Jul-27 18:30 160 7 gusting 14 33.3
2014-Jul-27 18:15 160 6 gusting 18 33.9
2014-Jul-27 18:00 176 10 gusting 18 33.9
2014-Jul-27 17:45 160 8 gusting 17 34.4
2014-Jul-27 17:30 145 8 gusting 14 35.0
2014-Jul-27 16:45 115 4 gusting 15 35.6
2014-Jul-27 16:30 141 5 gusting 14 35.6
2014-Jul-27 15:15 250 3 gusting 17 35.0
2014-Jul-27 15:00 205 6 gusting 14 35.0
2014-Jul-27 14:15 128 5 gusting 14 34.4
2014-Jul-27 14:00 160 5 gusting 15 34.4
2014-Jul-27 13:45 115 5 gusting 15 33.9
2014-Jul-27 12:45 115 5 gusting 11 32.8
2014-Jul-27 12:30 092 3 gusting 11 32.2
2014-Jul-27 11:30 115 2 gusting 11 30.0
2014-Jul-27 11:15 160 5 gusting 10 30.0
2014-Jul-27 11:00 160 4 gusting 12 29.4
2014-Jul-27 10:45 193 6 gusting 10 28.9
2014-Jul-27 10:00 115 0 gusting 6 28.3
2014-Jul-27 08:15 160 4 gusting 6 23.3
2014-Jul-27 08:00 205 3 gusting 7 22.8
2014-Jul-27 07:45 160 4 gusting 8 22.2
2014-Jul-27 07:15 144 5 gusting 8 21.7
2014-Jul-27 06:45 160 1 gusting 6 21.7
2014-Jul-27 06:00 160 4 gusting 10 21.1
2014-Jul-27 05:30 144 4 gusting 6 20.6
2014-Jul-27 05:15 160 4 gusting 8 21.1
2014-Jul-27 05:00 160 3 gusting 6 21.1
2014-Jul-27 04:45 115 2 gusting 6 21.7
2014-Jul-27 03:45 159 1 gusting 5 22.2
2014-Jul-27 03:30 250 1 gusting 7 22.8
2014-Jul-27 03:15 206 3 gusting 8 22.8
2014-Jul-27 03:00 250 2 gusting 6 22.8
2014-Jul-27 02:45 205 5 gusting 8 22.8
2014-Jul-27 02:15 141 5 gusting 8 23.3
2014-Jul-27 02:00 115 2 gusting 8 23.9
2014-Jul-27 01:45 115 4 gusting 8 23.9
2014-Jul-27 01:30 160 4 gusting 10 24.4
2014-Jul-27 01:15 205 5 gusting 8 25.0
2014-Jul-27 00:15 233 2 gusting 12 25.6
2014-Jul-26 23:30 205 5 gusting 8 26.1
2014-Jul-26 23:15 205 4 gusting 8 26.7
2014-Jul-26 23:00 152 5 gusting 10 27.2
2014-Jul-26 22:45 205 3 gusting 12 27.2
2014-Jul-26 22:30 205 5 gusting 13 27.8
2014-Jul-26 22:00 160 4 gusting 13 28.3
2014-Jul-26 20:30 160 5 gusting 13 30.6
2014-Jul-26 20:15 160 5 gusting 12 31.1
2014-Jul-26 20:00 205 6 gusting 14 31.7